Toms River, NJ

5:01 AM EDT on October 17, 2019 (GMT -0400)
Miller

Weather History for KMJX - August, 2019

Change the Weather History Date:

Tuesday, August 20, 2019

  Actual Average Record
Temperature  
Mean Temperature 80 °F -  
Max Temperature 87 °F 81 °F 94 °F (1962)
Min Temperature 73 °F 61 °F 49 °F (1976)
Cooling Degree Days 15    
Growing Degree Days 30 (Base 50)    
Moisture  
Dew Point 71 °F    
Average Humidity 68    
Maximum Humidity 100    
Minimum Humidity 53    
Precipitation  
Precipitation 0.00 in - - ()
Sea Level Pressure  
Sea Level Pressure 30.07 in    
Wind  
Wind Speed 3 mph (East)    
Max Wind Speed 12 mph    
Max Gust Speed -    
Visibility 10 miles    
Events      
Averages and records for this station are not official NWS values.
T = Trace of Precipitation, MM = Missing Value Source: NWS Daily Summary

Daily Weather History Graph

Daily Weather History Graph

Search for Another Location

Airport or City:

Astronomy

Aug. 20, 2019 Rise Set
Actual Time 6:13 AM EDT 7:47 PM EDT
Civil Twilight 5:44 AM EDT 8:15 PM EDT
Nautical Twilight 5:10 AM EDT 8:49 PM EDT
Astronomical Twilight 4:33 AM EDT 9:26 PM EDT
Moon 10:34 PM EDT (8/20) 10:48 AM EDT (8/20)
Length of Visible Light 14h 30m
Length of Day
13h 33m
Waning Gibbous, 78% of the Moon is Illuminated
Aug 20
Waning Gibbous
Aug 23
Last Quarter
Aug 30
New
Sep 5
First Quarter
Sep 14
Full

Hourly Weather History & Observations

Time (EDT) Temp. Heat Index Dew Point Humidity Pressure Visibility Wind Dir Wind Speed Gust Speed Precip Events Conditions
12:56 AM - - - N/A% 30.03 in 10.0 mi Calm Calm - N/A   Clear
1:56 AM - - - N/A% 30.03 in 10.0 mi Calm Calm - N/A   Mostly Cloudy
2:56 AM - - - N/A% 30.03 in 10.0 mi Calm Calm - N/A   Scattered Clouds
3:56 AM - - - N/A% 30.04 in 10.0 mi Calm Calm - N/A   Clear
4:56 AM - - - N/A% 30.05 in 10.0 mi Calm Calm - N/A   Clear
5:56 AM - - - N/A% 30.07 in 9.0 mi Calm Calm - N/A   Clear
6:56 AM - - - N/A% 30.09 in 10.0 mi Calm Calm - N/A   Clear
7:56 AM 75.0 °F - - N/A% 30.11 in 10.0 mi North 4.6 mph - N/A   Clear
8:56 AM 80.1 °F 86.7 °F 79.0 °F 96% 30.11 in 10.0 mi NE 8.1 mph - N/A   Clear
9:56 AM 81.0 °F 84.1 °F 69.1 °F 67% 30.13 in 10.0 mi ENE 11.5 mph - N/A   Clear
10:56 AM 82.9 °F 85.4 °F 66.9 °F 58% 30.12 in 10.0 mi NE 11.5 mph - N/A   Clear
11:56 AM 84.0 °F 86.5 °F 66.9 °F 56% 30.12 in 10.0 mi ENE 8.1 mph - N/A   Clear
12:56 PM 86.0 °F 88.8 °F 66.9 °F 53% 30.11 in 10.0 mi ESE 8.1 mph - N/A   Clear
1:56 PM 86.0 °F 88.8 °F 66.9 °F 53% 30.10 in 10.0 mi ESE 9.2 mph - N/A   Clear
2:56 PM 87.1 °F 91.3 °F 69.1 °F 55% 30.09 in 10.0 mi ESE 6.9 mph - N/A   Clear
3:56 PM 86.0 °F 92.2 °F 72.0 °F 63% 30.08 in 10.0 mi SSE 5.8 mph - N/A   Clear
4:56 PM 87.1 °F 94.5 °F 73.0 °F 63% 30.07 in 8.0 mi SE 6.9 mph - N/A   Clear
5:56 PM 84.0 °F 89.6 °F 72.0 °F 67% 30.07 in 9.0 mi SE 5.8 mph - N/A   Clear
6:56 PM 81.0 °F 86.7 °F 75.0 °F 82% 30.05 in 10.0 mi ESE 4.6 mph - N/A   Clear
7:56 PM 77.0 °F - 77.0 °F 100% 30.06 in 10.0 mi SE 4.6 mph - N/A   Clear
8:56 PM 73.9 °F - - N/A% 30.07 in 10.0 mi Calm Calm - N/A   Clear
9:56 PM 73.0 °F - - N/A% 30.07 in 10.0 mi Calm Calm - N/A   Clear
10:56 PM 73.0 °F - - N/A% 30.05 in 10.0 mi Calm Calm - N/A   Clear
11:09 PM - - - N/A% 30.04 in 6.0 mi Calm Calm - N/A   Haze
11:17 PM - - - N/A% 30.04 in 10.0 mi Calm Calm - N/A   Mostly Cloudy
11:39 PM 73.4 °F - - N/A% 30.05 in 10.0 mi Calm Calm - N/A   Overcast
11:56 PM - - - N/A% 30.05 in 10.0 mi Calm Calm - N/A   Overcast